#timestamp,LO_Frequency,Hit 
1503460815.6,286047016.0,N
1503460835.4,286047015.9,N
1503460855.2,286047016.8,N
1503460875.1,286047016.5,N
1503460876.0,286047016.5,N
1503460895.8,286047021.5,N
1503460915.6,286047021.6,N
1503460935.5,286047020.3,N
1503460955.3,286047019.9,N
1503460975.1,286047014.2,N
1503460995.9,286047020.9,N
1503461015.7,286047020.6,N
1503461035.5,286047021.9,N
1503461055.3,286047021.8,N
1503461075.2,286047022.7,N
1503461095.0,286047022.8,N
1503461095.9,286047022.8,N
1503461115.7,286047022.3,N
1503461135.6,286047023.0,N
1503461155.4,286047023.1,N
1503461175.2,286047024.9,P
1503461195.1,286047009.6,N
1503461196.0,286047009.6,N
1503461215.8,286047011.3,N
1503461235.6,286047011.3,N
1503461255.5,286047014.5,N
1503461275.3,286047014.4,N
1503461295.2,286047015.8,P
1503461315.9,286046999.7,N
1503461335.7,286047000.2,N
1503461355.5,286047002.5,N
1503461375.4,286046999.8,N
1503461395.2,286047002.6,N
1503461415.0,286046998.6,N
1503461415.9,286046998.6,N
1503461435.8,286046999.1,N
1503461455.6,286046995.7,N
1503461475.4,286046995.8,N
1503461495.3,286046995.6,N
1503461515.1,286046997.1,N
1503461516.0,286046997.1,N
1503461535.8,286047000.7,N
1503461555.7,286047001.0,N
1503461575.5,286046999.9,N
1503461595.3,286047001.5,N
1503461615.2,286047005.2,N
1503461635.9,286047005.2,N
1503461655.7,286047005.6,N
1503461675.5,286047003.7,N
1503461695.4,286047002.6,N
1503461715.2,286046999.2,N
1503461735.0,286047002.1,N
1503461735.9,286047002.1,N
1503461755.8,286047004.9,N
1503461775.6,286047001.5,N
1503461795.4,286046996.5,N
1503461815.3,286046996.0,N
1503461835.1,286046991.0,N
1503461855.8,286046988.5,P
1503461875.7,286046988.8,N
1503461895.5,286046987.2,N
1503461915.3,286046986.0,N
1503461935.2,286046987.2,N
1503461955.9,286046988.2,N
1503461975.7,286046984.4,P
1503461995.6,286046992.6,N
1503462015.4,286046991.3,N
1503462035.2,286046988.7,P
1503462055.1,286047002.7,P
1503462056.0,286047002.7,N
1503462075.8,286046998.7,N
1503462095.6,286046998.2,N
1503462115.5,286046998.5,N
1503462135.3,286046998.7,N
1503462155.1,286046998.5,N
1503462175.9,286046997.2,N
1503462195.7,286046990.6,N
1503462215.5,286046988.6,N
1503462235.4,286046988.5,N
1503462255.2,286046987.6,N
1503462275.0,286046991.5,N
1503462275.9,286046991.5,N
1503462295.8,286046993.6,N
1503462315.6,286046993.2,N
1503462335.4,286046992.7,N
1503462355.2,286046990.3,N
1503462375.1,286046992.2,N
1503462376.0,286046992.2,N
1503462395.8,286046992.1,N
1503462415.6,286046992.6,N
1503462435.5,286046990.2,N
1503462455.3,286046992.4,N
1503462475.1,286046991.3,N
1503462495.9,286046986.9,P
1503462515.7,286046994.5,N
1503462535.5,286046995.2,N
1503462555.4,286046998.0,N
1503462575.2,286046998.8,N
1503462595.0,286046997.2,N
1503462595.9,286046997.2,N
1503462615.8,286046993.9,N
1503462635.6,286046994.6,N
1503462655.4,286046995.5,N
1503462675.3,286047001.4,N
1503462695.1,286047009.6,N
1503462696.0,286047009.6,N
1503462715.8,286047012.8,N
1503462735.7,286047014.1,N
1503462755.5,286047018.6,N
1503462775.3,286047017.5,N
1503462795.1,286047018.0,N
1503462815.9,286047019.4,N
1503462835.7,286047023.2,N
1503462855.5,286047020.5,N
1503462875.4,286047022.8,N
1503462895.2,286047026.7,N
1503462915.0,286047027.2,N
1503462915.9,286047027.2,N
1503462935.8,286047028.4,N
1503462955.6,286047027.3,N
1503462975.4,286047026.4,N
1503462995.3,286047025.4,N
1503463015.1,286047029.8,N
1503463016.0,286047029.8,N
1503463035.8,286047031.2,N
1503463055.7,286047027.8,N
1503463075.5,286047027.6,N
1503463095.3,286047027.3,N
1503463115.1,286047027.3,N
1503463135.9,286047028.7,N
1503463155.7,286047029.5,N
1503463175.5,286047028.6,N
1503463195.4,286047030.2,P
1503463215.2,286047006.2,N
1503463235.0,286047007.0,N
1503463236.0,286047007.0,N
1503463255.8,286047006.5,N
1503463275.6,286047009.2,N
1503463295.4,286047010.2,N
1503463315.3,286047012.2,N
1503463335.1,286047012.7,N
1503463355.8,286047011.9,N
1503463375.7,286047010.4,N
1503463395.5,286047009.8,N
1503463415.3,286047011.1,N
1503463435.2,286047011.4,N
1503463455.9,286047015.6,N
1503463475.7,286047011.1,N
1503463495.6,286047013.3,N
1503463515.4,286047011.0,N
1503463535.2,286047008.4,N
1503463555.0,286047006.6,N
1503463556.0,286047006.6,N
1503463575.8,286047007.5,N
1503463595.6,286047006.5,N
1503463615.4,286047013.8,N
1503463635.3,286047013.4,N
1503463655.1,286047013.8,N
1503463675.8,286047011.3,N
1503463695.7,286047008.5,N
1503463715.5,286047011.7,N
1503463735.3,286047011.8,N
1503463755.2,286047009.2,N
1503463775.9,286047003.5,N
1503463795.7,286047001.9,N
1503463815.6,286047000.9,N
1503463835.4,286046996.7,N
1503463855.2,286046997.2,N
1503463875.1,286046993.8,N
1503463876.0,286046993.8,N
1503463895.8,286046992.1,N
1503463915.6,286046990.7,N
1503463935.4,286046987.0,N
1503463955.3,286046989.8,N
1503463975.1,286046988.1,N
1503463995.8,286046985.9,N
1503464015.7,286046982.0,N
1503464035.5,286046981.5,N
1503464055.3,286046982.8,N
1503464075.2,286046982.8,N
1503464095.9,286046985.0,N
1503464115.7,286046982.6,N
1503464135.6,286046977.7,N
1503464155.4,286046978.7,N
1503464175.2,286046978.5,N
1503464195.1,286046980.4,N
1503464196.0,286046980.4,N
1503464215.8,286046974.5,N
1503464235.6,286046976.5,N
1503464255.4,286046978.1,N
1503464275.3,286046979.3,N
1503464295.1,286046981.4,N
1503464315.8,286046982.0,N
1503464335.7,286046977.8,N
1503464355.5,286046973.1,P
1503464375.3,286046989.7,N
1503464395.2,286046987.0,N
